"read_dt","SO2 (ppb)","flags","PMT voltage (V)","lamp voltage (V)","lamp intensity (Hz)","internal temp (C)","react chamber temp (C)","sample flow (l/min)","pres (mmHg)","SO2 bkg (ppb)","SO2 coefficient"
2016-03-20 00:00:00,1902E-3,5C000400,-0724,0838,12125,029.0,045.5,0.254,759.6,01.16,0.508
2016-03-20 00:01:00,2001E-3,5C000400,-0724,0839,12263,029.0,045.5,0.254,759.6,01.16,0.508
2016-03-20 00:02:00,1990E-3,5C000400,-0724,0838,12150,029.0,045.5,0.254,759.7,01.16,0.508
2016-03-20 00:03:00,1981E-3,5C000400,-0724,0838,11999,029.0,045.5,0.253,759.6,01.16,0.508
2016-03-20 00:04:00,1789E-3,5C000400,-0724,0838,12043,029.0,045.5,0.253,759.6,01.16,0.508
2016-03-20 00:05:00,1986E-3,5C000400,-0724,0838,12058,029.0,045.5,0.253,759.6,01.16,0.508
2016-03-20 00:06:00,1841E-3,5C000400,-0724,0837,12145,029.0,045.5,0.253,759.6,01.16,0.508
2016-03-20 00:07:00,1939E-3,5C000400,-0724,0838,12149,029.0,045.5,0.254,759.6,01.16,0.508
2016-03-20 00:08:00,2079E-3,5C000400,-0724,0838,12139,029.0,045.5,0.254,759.6,01.16,0.508
2016-03-20 00:09:00,1960E-3,5C000400,-0724,0837,12151,029.0,045.5,0.254,759.6,01.16,0.508
2016-03-20 00:10:00,1826E-3,5C000400,-0724,0837,12228,029.0,045.5,0.254,759.6,01.16,0.508
2016-03-20 00:11:00,1903E-3,5C000400,-0724,0838,12072,029.0,045.5,0.254,759.6,01.16,0.508
2016-03-20 00:12:00,1835E-3,5C000400,-0724,0838,11971,028.9,045.5,0.254,759.6,01.16,0.508
2016-03-20 00:13:00,1936E-3,5C000400,-0724,0838,11939,029.0,045.4,0.254,759.6,01.16,0.508
2016-03-20 00:14:00,1961E-3,5C000400,-0724,0839,12058,029.0,045.5,0.254,759.6,01.16,0.508
2016-03-20 00:15:00,1956E-3,5C000400,-0724,0838,12111,029.0,045.5,0.254,759.6,01.16,0.508
2016-03-20 00:16:00,1876E-3,5C000400,-0724,0838,12294,029.0,045.5,0.253,759.6,01.16,0.508
2016-03-20 00:17:00,1863E-3,5C000400,-0724,0837,12139,029.0,045.5,0.253,759.5,01.16,0.508
2016-03-20 00:18:00,1924E-3,5C000400,-0724,0839,12126,029.0,045.5,0.253,759.5,01.16,0.508
2016-03-20 00:19:00,1838E-3,5C000400,-0724,0838,11952,029.0,045.5,0.254,759.5,01.16,0.508
2016-03-20 00:20:00,1955E-3,5C000400,-0724,0838,12074,028.9,045.5,0.254,759.6,01.16,0.508
2016-03-20 00:21:00,1980E-3,5C000400,-0724,0838,12104,029.0,045.5,0.254,759.6,01.16,0.508
2016-03-20 00:22:00,1799E-3,5C000400,-0724,0838,12200,029.0,045.5,0.254,759.6,01.16,0.508
2016-03-20 00:23:00,2043E-3,5C000400,-0724,0838,12095,029.0,045.5,0.254,759.6,01.16,0.508
2016-03-20 00:24:00,1986E-3,5C000400,-0724,0837,12091,029.0,045.5,0.254,759.6,01.16,0.508
2016-03-20 00:25:00,1850E-3,5C000400,-0724,0839,12143,029.0,045.5,0.254,759.6,01.16,0.508
2016-03-20 00:26:00,1895E-3,5C000400,-0724,0838,12151,029.0,045.5,0.254,759.6,01.16,0.508
2016-03-20 00:27:00,1888E-3,5C000400,-0724,0838,12072,029.0,045.5,0.254,759.6,01.16,0.508
2016-03-20 00:28:00,1906E-3,5C000400,-0724,0838,12073,029.0,045.5,0.253,759.6,01.16,0.508
2016-03-20 00:29:00,1857E-3,5C000400,-0724,0838,12094,029.0,045.5,0.253,759.6,01.16,0.508
2016-03-20 00:30:00,1717E-3,5C000400,-0724,0838,12206,029.0,045.5,0.253,759.6,01.16,0.508
2016-03-20 00:31:00,2036E-3,5C000400,-0724,0838,11982,029.0,045.5,0.253,759.6,01.16,0.508
2016-03-20 00:32:00,1861E-3,5C000400,-0724,0838,12035,029.0,045.5,0.254,759.6,01.16,0.508
2016-03-20 00:33:00,1893E-3,5C000400,-0724,0838,12225,029.0,045.5,0.254,759.6,01.16,0.508
2016-03-20 00:34:00,1793E-3,5C000400,-0724,0838,12071,029.0,045.5,0.254,759.6,01.16,0.508
2016-03-20 00:35:00,1810E-3,5C000400,-0724,0838,12112,029.0,045.5,0.254,759.6,01.16,0.508
2016-03-20 00:36:00,1870E-3,5C000400,-0724,0837,12159,029.0,045.4,0.254,759.6,01.16,0.508
2016-03-20 00:37:00,1963E-3,5C000400,-0724,0838,12229,029.0,045.5,0.254,759.6,01.16,0.508
2016-03-20 00:38:00,1877E-3,5C000400,-0724,0838,12224,029.0,045.5,0.254,759.6,01.16,0.508
2016-03-20 00:39:00,1933E-3,5C000400,-0724,0838,12171,029.0,045.5,0.254,759.6,01.16,0.508
2016-03-20 00:40:00,1953E-3,5C000400,-0724,0838,12179,029.0,045.5,0.253,759.6,01.16,0.508
2016-03-20 00:41:00,1768E-3,5C000400,-0724,0838,12147,029.0,045.5,0.253,759.6,01.16,0.508
2016-03-20 00:42:00,1879E-3,5C000400,-0724,0838,12126,029.0,045.5,0.253,759.6,01.16,0.508
2016-03-20 00:43:00,1891E-3,5C000400,-0724,0838,11985,029.0,045.5,0.253,759.5,01.16,0.508
2016-03-20 00:44:00,1993E-3,5C000400,-0724,0838,12108,029.0,045.5,0.254,759.5,01.16,0.508
2016-03-20 00:45:00,1862E-3,5C000400,-0724,0838,12046,029.0,045.5,0.254,759.5,01.16,0.508
2016-03-20 00:46:00,1911E-3,5C000400,-0724,0838,11956,029.0,045.5,0.253,759.6,01.16,0.508
2016-03-20 00:47:00,1946E-3,5C000400,-0724,0837,12169,029.0,045.5,0.254,759.5,01.16,0.508
2016-03-20 00:48:00,1894E-3,5C000400,-0724,0839,12202,029.0,045.5,0.254,759.5,01.16,0.508
2016-03-20 00:49:00,1962E-3,5C000400,-0724,0838,12010,029.0,045.5,0.254,759.5,01.16,0.508
2016-03-20 00:50:00,2007E-3,5C000400,-0724,0838,11999,029.0,045.5,0.254,759.5,01.16,0.508
2016-03-20 00:51:00,1899E-3,5C000400,-0724,0839,12151,029.0,045.4,0.254,759.5,01.16,0.508
2016-03-20 00:52:00,1794E-3,5C000400,-0724,0838,12166,029.0,045.5,0.254,759.6,01.16,0.508
2016-03-20 00:53:00,1851E-3,5C000400,-0724,0838,12130,029.0,045.5,0.254,759.6,01.16,0.508
2016-03-20 00:54:00,1892E-3,5C000400,-0724,0838,12103,029.0,045.5,0.253,759.6,01.16,0.508
2016-03-20 00:55:00,1883E-3,5C000400,-0724,0838,12079,029.0,045.5,0.253,759.6,01.16,0.508
2016-03-20 00:56:00,1966E-3,5C000400,-0724,0838,12278,029.0,045.5,0.253,759.6,01.16,0.508
2016-03-20 00:57:00,2064E-3,5C000400,-0724,0838,12148,029.0,045.4,0.253,759.6,01.16,0.508
2016-03-20 00:58:00,1924E-3,5C000400,-0724,0838,11978,029.0,045.4,0.254,759.6,01.16,0.508
2016-03-20 00:59:00,1801E-3,5C000400,-0724,0838,12065,029.0,045.5,0.254,759.6,01.16,0.508
2016-03-20 01:00:00,1984E-3,5C000400,-0724,0838,12247,029.0,045.5,0.254,759.6,01.16,0.508
2016-03-20 01:01:00,1901E-3,5C000400,-0724,0838,12078,029.0,045.5,0.254,759.6,01.16,0.508
2016-03-20 01:02:00,1868E-3,5C000400,-0724,0837,11961,029.0,045.5,0.254,759.6,01.16,0.508
2016-03-20 01:03:00,1898E-3,5C000400,-0724,0838,12086,029.0,045.5,0.254,759.6,01.16,0.508
2016-03-20 01:04:00,1911E-3,5C000400,-0724,0838,12051,029.0,045.5,0.254,759.6,01.16,0.508
2016-03-20 01:05:00,2003E-3,5C000400,-0724,0838,12181,029.0,045.5,0.253,759.6,01.16,0.508
2016-03-20 01:06:00,1939E-3,5C000400,-0724,0838,12249,029.0,045.5,0.253,759.6,01.16,0.508
2016-03-20 01:07:00,1944E-3,5C000400,-0724,0838,12237,029.0,045.5,0.253,759.6,01.16,0.508
2016-03-20 01:08:00,2104E-3,5C000400,-0724,0838,12166,029.0,045.5,0.253,759.6,01.16,0.508
2016-03-20 01:09:00,1922E-3,5C000400,-0724,0838,12077,029.0,045.5,0.253,759.6,01.16,0.508
2016-03-20 01:10:00,1933E-3,5C000400,-0724,0838,12012,029.0,045.5,0.253,759.6,01.16,0.508
2016-03-20 01:11:00,1864E-3,5C000400,-0724,0838,12001,029.0,045.5,0.254,759.6,01.16,0.508
2016-03-20 01:12:00,1927E-3,5C000400,-0724,0838,11986,029.0,045.5,0.254,759.6,01.16,0.508
2016-03-20 01:13:00,1935E-3,5C000400,-0724,0838,12070,029.0,045.5,0.254,759.6,01.16,0.508
2016-03-20 01:14:00,1821E-3,5C000400,-0724,0839,12166,029.0,045.5,0.254,759.6,01.16,0.508
2016-03-20 01:15:00,1779E-3,5C000400,-0724,0839,12120,029.0,045.5,0.254,759.6,01.16,0.508
2016-03-20 01:16:00,1900E-3,5C000400,-0724,0837,12116,029.0,045.5,0.254,759.6,01.16,0.508
2016-03-20 01:17:00,1669E-3,5C000400,-0724,0838,12207,029.0,045.5,0.253,759.6,01.16,0.508
2016-03-20 01:18:00,1940E-3,5C000400,-0724,0838,12114,029.0,045.5,0.253,759.6,01.16,0.508
2016-03-20 01:19:00,1992E-3,5C000400,-0724,0837,12147,029.0,045.5,0.253,759.6,01.16,0.508
2016-03-20 01:20:00,1983E-3,5C000400,-0724,0838,12220,029.0,045.5,0.253,759.6,01.16,0.508
2016-03-20 01:21:00,1802E-3,5C000400,-0724,0838,12044,029.1,045.5,0.253,759.6,01.16,0.508
2016-03-20 01:22:00,1999E-3,5C000400,-0724,0839,12175,029.1,045.5,0.253,759.6,01.16,0.508
2016-03-20 01:23:00,1835E-3,5C000400,-0724,0838,12213,029.1,045.5,0.254,759.6,01.16,0.508
2016-03-20 01:24:00,1913E-3,5C000400,-0724,0837,11999,029.1,045.5,0.254,759.6,01.16,0.508
2016-03-20 01:25:00,1885E-3,5C000400,-0724,0838,12055,029.0,045.5,0.254,759.6,01.16,0.508
2016-03-20 01:26:00,1781E-3,5C000400,-0724,0838,12144,029.0,045.5,0.254,759.6,01.16,0.508
2016-03-20 01:27:00,2097E-3,5C000400,-0724,0838,12044,029.1,045.5,0.254,759.6,01.16,0.508
2016-03-20 01:28:00,1959E-3,5C000400,-0724,0838,12138,029.1,045.5,0.254,759.6,01.16,0.508
2016-03-20 01:29:00,2003E-3,5C000400,-0724,0837,12093,029.1,045.5,0.253,759.6,01.16,0.508
2016-03-20 01:30:00,1994E-3,5C000400,-0724,0838,12118,029.1,045.5,0.254,759.6,01.16,0.508
2016-03-20 01:31:00,1798E-3,5C000400,-0724,0838,12134,029.1,045.5,0.253,759.6,01.16,0.508
2016-03-20 01:32:00,1913E-3,5C000400,-0724,0838,12288,029.1,045.5,0.253,759.6,01.16,0.508
2016-03-20 01:33:00,1960E-3,5C000400,-0724,0838,12005,029.1,045.5,0.253,759.6,01.16,0.508
2016-03-20 01:34:00,1999E-3,5C000400,-0724,0838,12257,029.1,045.5,0.253,759.6,01.16,0.508
2016-03-20 01:35:00,1935E-3,5C000400,-0724,0838,12217,029.1,045.5,0.253,759.6,01.16,0.508
2016-03-20 01:36:00,1936E-3,5C000400,-0724,0837,12102,029.1,045.5,0.254,759.6,01.16,0.508
2016-03-20 01:37:00,1970E-3,5C000400,-0724,0837,12156,029.1,045.5,0.254,759.6,01.16,0.508
2016-03-20 01:38:00,2017E-3,5C000400,-0724,0838,11978,029.1,045.5,0.254,759.6,01.16,0.508
2016-03-20 01:39:00,2072E-3,5C000400,-0724,0837,12165,029.1,045.4,0.254,759.6,01.16,0.508
2016-03-20 01:40:00,1850E-3,5C000400,-0724,0838,12186,029.1,045.5,0.253,759.6,01.16,0.508
2016-03-20 01:41:00,1919E-3,5C000400,-0724,0838,12085,029.1,045.5,0.253,759.6,01.16,0.508
2016-03-20 01:42:00,1990E-3,5C000400,-0724,0838,12194,029.1,045.5,0.254,759.6,01.16,0.508
2016-03-20 01:43:00,2068E-3,5C000400,-0724,0838,12012,029.1,045.5,0.254,759.6,01.16,0.508
2016-03-20 01:44:00,1897E-3,5C000400,-0724,0838,12073,029.1,045.5,0.254,759.6,01.16,0.508
2016-03-20 01:45:00,1890E-3,5C000400,-0724,0838,12162,029.1,045.5,0.254,759.6,01.16,0.508
2016-03-20 01:46:00,1913E-3,5C000400,-0724,0838,12150,029.1,045.5,0.253,759.6,01.16,0.508
2016-03-20 01:47:00,1851E-3,5C000400,-0724,0838,12127,029.1,045.5,0.253,759.6,01.16,0.508
2016-03-20 01:48:00,1832E-3,5C000400,-0724,0839,12096,029.1,045.5,0.253,759.6,01.16,0.508
2016-03-20 01:49:00,1968E-3,5C000400,-0724,0838,12056,029.1,045.5,0.253,759.6,01.16,0.508
2016-03-20 01:50:00,1908E-3,5C000400,-0724,0838,12131,029.1,045.5,0.253,759.6,01.16,0.508
2016-03-20 01:51:00,1935E-3,5C000400,-0724,0837,12229,029.1,045.5,0.253,759.6,01.16,0.508
2016-03-20 01:52:00,1992E-3,5C000400,-0724,0838,12174,029.1,045.5,0.253,759.6,01.16,0.508
2016-03-20 01:53:00,2135E-3,5C000400,-0724,0838,12130,029.1,045.5,0.253,759.6,01.16,0.508
2016-03-20 01:54:00,1910E-3,5C000400,-0724,0838,12153,029.1,045.5,0.253,759.5,01.16,0.508
2016-03-20 01:55:00,1909E-3,5C000400,-0724,0838,12128,029.1,045.5,0.254,759.4,01.16,0.508
2016-03-20 01:56:00,1972E-3,5C000400,-0724,0838,12290,029.1,045.5,0.254,759.5,01.16,0.508
2016-03-20 01:57:00,1852E-3,5C000400,-0724,0837,11978,029.1,045.5,0.254,759.5,01.16,0.508
2016-03-20 01:58:00,1952E-3,5C000400,-0724,0838,11985,029.1,045.5,0.254,759.4,01.16,0.508
2016-03-20 01:59:00,1861E-3,5C000400,-0724,0838,12065,029.2,045.5,0.253,759.5,01.16,0.508
2016-03-20 02:00:00,1879E-3,5C000400,-0724,0838,12023,029.2,045.5,0.253,759.4,01.16,0.508
2016-03-20 02:01:00,1935E-3,5C000400,-0724,0838,12171,029.2,045.5,0.253,759.4,01.16,0.508
2016-03-20 02:02:00,1944E-3,5C000400,-0724,0838,12066,029.1,045.5,0.253,759.5,01.16,0.508
2016-03-20 02:03:00,1938E-3,5C000400,-0724,0838,12066,029.1,045.5,0.253,759.5,01.16,0.508
2016-03-20 02:04:00,1913E-3,5C000400,-0724,0838,12105,029.2,045.5,0.253,759.5,01.16,0.508
2016-03-20 02:05:00,1919E-3,5C000400,-0724,0838,12049,029.2,045.5,0.253,759.4,01.16,0.508
2016-03-20 02:06:00,1854E-3,5C000400,-0724,0837,12121,029.1,045.5,0.253,759.4,01.16,0.508
2016-03-20 02:07:00,1946E-3,5C000400,-0724,0838,12121,029.2,045.5,0.253,759.5,01.16,0.508
2016-03-20 02:08:00,1942E-3,5C000400,-0724,0838,12183,029.2,045.5,0.253,759.5,01.16,0.508
2016-03-20 02:09:00,1924E-3,5C000400,-0724,0837,12309,029.2,045.5,0.253,759.6,01.16,0.508
2016-03-20 02:10:00,1961E-3,5C000400,-0724,0838,11986,029.2,045.5,0.253,759.6,01.16,0.508
2016-03-20 02:11:00,1816E-3,5C000400,-0724,0838,12158,029.2,045.5,0.253,759.5,01.16,0.508
2016-03-20 02:12:00,1946E-3,5C000400,-0724,0838,12039,029.2,045.5,0.253,759.6,01.16,0.508
2016-03-20 02:13:00,1983E-3,5C000400,-0724,0838,12235,029.2,045.5,0.253,759.6,01.16,0.508
2016-03-20 02:14:00,1912E-3,5C000400,-0724,0838,12130,029.2,045.5,0.253,759.6,01.16,0.508
2016-03-20 02:15:00,1903E-3,5C000400,-0724,0839,12146,029.2,045.5,0.253,759.6,01.16,0.508
2016-03-20 02:16:00,1828E-3,5C000400,-0724,0839,12249,029.2,045.5,0.253,759.6,01.16,0.508
2016-03-20 02:17:00,1969E-3,5C000400,-0724,0838,12060,029.2,045.5,0.253,759.6,01.16,0.508
2016-03-20 02:18:00,1838E-3,5C000400,-0724,0839,11934,029.2,045.5,0.253,759.6,01.16,0.508
2016-03-20 02:19:00,1951E-3,5C000400,-0724,0838,12086,029.2,045.5,0.253,759.5,01.16,0.508
2016-03-20 02:20:00,1865E-3,5C000400,-0724,0838,12136,029.2,045.5,0.253,759.6,01.16,0.508
2016-03-20 02:21:00,1988E-3,5C000400,-0724,0838,12074,029.2,045.5,0.253,759.6,01.16,0.508
2016-03-20 02:22:00,1909E-3,5C000400,-0724,0838,12161,029.2,045.5,0.253,759.6,01.16,0.508
2016-03-20 02:23:00,1872E-3,5C000400,-0724,0838,12099,029.2,045.5,0.253,759.6,01.16,0.508
2016-03-20 02:24:00,1823E-3,5C000400,-0724,0838,12223,029.2,045.5,0.253,759.6,01.16,0.508
2016-03-20 02:25:00,1924E-3,5C000400,-0724,0838,12099,029.2,045.5,0.253,759.5,01.16,0.508
2016-03-20 02:26:00,1752E-3,5C000400,-0724,0838,12175,029.3,045.5,0.253,759.6,01.16,0.508
2016-03-20 02:27:00,1898E-3,5C000400,-0724,0838,12218,029.3,045.5,0.253,759.5,01.16,0.508
2016-03-20 02:28:00,1766E-3,5C000400,-0724,0838,12183,029.2,045.5,0.253,759.6,01.16,0.508
2016-03-20 02:29:00,1893E-3,5C000400,-0724,0838,12177,029.3,045.5,0.253,759.5,01.16,0.508
2016-03-20 02:30:00,1888E-3,5C000400,-0724,0838,11900,029.3,045.5,0.253,759.5,01.16,0.508
2016-03-20 02:31:00,1936E-3,5C000400,-0724,0838,11970,029.3,045.5,0.253,759.5,01.16,0.508
2016-03-20 02:32:00,1841E-3,5C000400,-0724,0838,12105,029.3,045.5,0.253,759.5,01.16,0.508
2016-03-20 02:33:00,1865E-3,5C000400,-0724,0838,12135,029.3,045.5,0.253,759.3,01.16,0.508
2016-03-20 02:34:00,2005E-3,5C000400,-0724,0838,12127,029.3,045.5,0.253,759.4,01.16,0.508
2016-03-20 02:35:00,1869E-3,5C000400,-0724,0837,12045,029.3,045.5,0.253,759.3,01.16,0.508
2016-03-20 02:36:00,1843E-3,5C000400,-0724,0838,11936,029.3,045.5,0.253,759.3,01.16,0.508
2016-03-20 02:37:00,1907E-3,5C000400,-0724,0838,12253,029.3,045.5,0.253,759.3,01.16,0.508
2016-03-20 02:38:00,1875E-3,5C000400,-0724,0838,12064,029.3,045.5,0.253,759.3,01.16,0.508
2016-03-20 02:39:00,1968E-3,5C000400,-0724,0838,12096,029.3,045.5,0.253,759.4,01.16,0.508
2016-03-20 02:40:00,1910E-3,5C000400,-0724,0837,12158,029.3,045.5,0.253,759.5,01.16,0.508
2016-03-20 02:41:00,1905E-3,5C000400,-0724,0838,12086,029.3,045.5,0.253,759.5,01.16,0.508
2016-03-20 02:42:00,1918E-3,5C000400,-0724,0838,12202,029.3,045.5,0.253,759.4,01.16,0.508
2016-03-20 02:43:00,1996E-3,5C000400,-0724,0838,12115,029.3,045.5,0.254,759.4,01.16,0.508
2016-03-20 02:44:00,1917E-3,5C000400,-0724,0838,12009,029.3,045.5,0.253,759.4,01.16,0.508
2016-03-20 02:45:00,1750E-3,5C000400,-0724,0837,12095,029.3,045.5,0.253,759.3,01.16,0.508
2016-03-20 02:46:00,1857E-3,5C000400,-0724,0838,12196,029.3,045.5,0.253,759.3,01.16,0.508
2016-03-20 02:47:00,2019E-3,5C000400,-0724,0838,12051,029.3,045.5,0.253,759.3,01.16,0.508
2016-03-20 02:48:00,1782E-3,5C000400,-0724,0838,12219,029.3,045.5,0.253,759.3,01.16,0.508
2016-03-20 02:49:00,1781E-3,5C000400,-0724,0837,12044,029.3,045.5,0.253,759.3,01.16,0.508
2016-03-20 02:50:00,2038E-3,5C000400,-0724,0838,12232,029.4,045.5,0.253,759.2,01.16,0.508
2016-03-20 02:51:00,1951E-3,5C000400,-0724,0839,11892,029.4,045.5,0.253,759.2,01.16,0.508
2016-03-20 02:52:00,1798E-3,5C000400,-0724,0838,12165,029.3,045.5,0.253,759.1,01.16,0.508
2016-03-20 02:53:00,2061E-3,5C000400,-0724,0838,12001,029.3,045.5,0.253,759.2,01.16,0.508
2016-03-20 02:54:00,1881E-3,5C000400,-0724,0838,12129,029.3,045.5,0.253,759.1,01.16,0.508
2016-03-20 02:55:00,1981E-3,5C000400,-0724,0839,12112,029.3,045.5,0.253,759.1,01.16,0.508
2016-03-20 02:56:00,2025E-3,5C000400,-0724,0838,12143,029.4,045.5,0.253,759.2,01.16,0.508
2016-03-20 02:57:00,1975E-3,5C000400,-0724,0838,12188,029.3,045.5,0.253,759.2,01.16,0.508
2016-03-20 02:58:00,1910E-3,5C000400,-0724,0838,12181,029.4,045.5,0.253,759.2,01.16,0.508
2016-03-20 02:59:00,1981E-3,5C000400,-0724,0838,12170,029.4,045.5,0.253,759.2,01.16,0.508
2016-03-20 03:00:00,2015E-3,5C000400,-0724,0838,12099,029.3,045.5,0.253,759.2,01.16,0.508
2016-03-20 03:01:00,1819E-3,5C000400,-0724,0839,12163,029.4,045.5,0.253,759.3,01.16,0.508
2016-03-20 03:02:00,1926E-3,5C000400,-0724,0839,11985,029.3,045.5,0.253,759.3,01.16,0.508
2016-03-20 03:03:00,1886E-3,5C000400,-0724,0838,12196,029.4,045.5,0.253,759.3,01.16,0.508
2016-03-20 03:04:00,1900E-3,5C000400,-0724,0837,12206,029.4,045.5,0.253,759.3,01.16,0.508
2016-03-20 03:05:00,1973E-3,5C000400,-0724,0839,12125,029.4,045.5,0.253,759.3,01.16,0.508
2016-03-20 03:06:00,1815E-3,5C000400,-0724,0838,12198,029.4,045.5,0.253,759.3,01.16,0.508
2016-03-20 03:07:00,2001E-3,5C000400,-0724,0838,12044,029.4,045.5,0.253,759.4,01.16,0.508
2016-03-20 03:08:00,1804E-3,5C000400,-0724,0837,12092,029.4,045.5,0.253,759.3,01.16,0.508
2016-03-20 03:09:00,1996E-3,5C000400,-0724,0838,12097,029.4,045.5,0.253,759.3,01.16,0.508
2016-03-20 03:10:00,1858E-3,5C000400,-0724,0838,12102,029.4,045.5,0.252,759.4,01.16,0.508
2016-03-20 03:11:00,2021E-3,5C000400,-0724,0837,12214,029.4,045.5,0.252,759.3,01.16,0.508
2016-03-20 03:12:00,1811E-3,5C000400,-0724,0838,12289,029.4,045.5,0.252,759.3,01.16,0.508
2016-03-20 03:13:00,1942E-3,5C000400,-0724,0838,12236,029.4,045.5,0.252,759.4,01.16,0.508
2016-03-20 03:14:00,1873E-3,5C000400,-0724,0837,12001,029.3,045.5,0.253,759.3,01.16,0.508
2016-03-20 03:15:00,2019E-3,5C000400,-0724,0837,12196,029.4,045.5,0.253,759.3,01.16,0.508
2016-03-20 03:16:00,1940E-3,5C000400,-0724,0838,12126,029.4,045.5,0.253,759.3,01.16,0.508
2016-03-20 03:17:00,2110E-3,5C000400,-0724,0837,12006,029.4,045.5,0.253,759.3,01.16,0.508
2016-03-20 03:18:00,1985E-3,5C000400,-0724,0838,12180,029.4,045.5,0.253,759.3,01.16,0.508
2016-03-20 03:19:00,1925E-3,5C000400,-0724,0838,11988,029.4,045.5,0.253,759.3,01.16,0.508
2016-03-20 03:20:00,1955E-3,5C000400,-0724,0837,12207,029.4,045.5,0.253,759.3,01.16,0.508
2016-03-20 03:21:00,1912E-3,5C000400,-0724,0838,12183,029.4,045.5,0.253,759.3,01.16,0.508
2016-03-20 03:22:00,1839E-3,5C000400,-0724,0838,12145,029.4,045.5,0.253,759.3,01.16,0.508
2016-03-20 03:23:00,1954E-3,5C000400,-0724,0838,12094,029.4,045.5,0.253,759.3,01.16,0.508
2016-03-20 03:24:00,1921E-3,5C000400,-0724,0838,12205,029.4,045.5,0.253,759.3,01.16,0.508
2016-03-20 03:25:00,1890E-3,5C000400,-0724,0838,12033,029.4,045.5,0.253,759.3,01.16,0.508
2016-03-20 03:26:00,1827E-3,5C000400,-0724,0838,12112,029.4,045.5,0.253,759.3,01.16,0.508
2016-03-20 03:27:00,1976E-3,5C000400,-0724,0839,12106,029.4,045.5,0.253,759.3,01.16,0.508
2016-03-20 03:28:00,1887E-3,5C000400,-0724,0837,12045,029.4,045.5,0.253,759.3,01.16,0.508
2016-03-20 03:29:00,1858E-3,5C000400,-0724,0838,11997,029.4,045.5,0.253,759.3,01.16,0.508
2016-03-20 03:30:00,1888E-3,5C000400,-0724,0838,12081,029.4,045.5,0.253,759.3,01.16,0.508
2016-03-20 03:31:00,1885E-3,5C000400,-0724,0838,12117,029.4,045.5,0.253,759.3,01.16,0.508
2016-03-20 03:32:00,1999E-3,5C000400,-0724,0838,12215,029.5,045.5,0.253,759.3,01.16,0.508
2016-03-20 03:33:00,1896E-3,5C000400,-0724,0839,12005,029.4,045.5,0.253,759.3,01.16,0.508
2016-03-20 03:34:00,2142E-3,5C000400,-0724,0839,12161,029.4,045.5,0.253,759.3,01.16,0.508
2016-03-20 03:35:00,1952E-3,5C000400,-0724,0839,12235,029.4,045.5,0.253,759.3,01.16,0.508
2016-03-20 03:36:00,1880E-3,5C000400,-0724,0838,12016,029.4,045.5,0.253,759.4,01.16,0.508
2016-03-20 03:37:00,1963E-3,5C000400,-0724,0838,12119,029.4,045.5,0.253,759.4,01.16,0.508
2016-03-20 03:38:00,1871E-3,5C000400,-0724,0838,12170,029.4,045.5,0.253,759.4,01.16,0.508
2016-03-20 03:39:00,1899E-3,5C000400,-0724,0837,12171,029.5,045.5,0.253,759.4,01.16,0.508
2016-03-20 03:40:00,1905E-3,5C000400,-0724,0839,12130,029.5,045.5,0.253,759.4,01.16,0.508
2016-03-20 03:41:00,1881E-3,5C000400,-0724,0838,12017,029.4,045.5,0.253,759.4,01.16,0.508
2016-03-20 03:42:00,1882E-3,5C000400,-0724,0838,12083,029.5,045.5,0.253,759.3,01.16,0.508
2016-03-20 03:43:00,1976E-3,5C000400,-0724,0837,12152,029.5,045.5,0.253,759.3,01.16,0.508
2016-03-20 03:44:00,1862E-3,5C000400,-0724,0839,12169,029.5,045.5,0.253,759.3,01.16,0.508
2016-03-20 03:45:00,2043E-3,5C000400,-0724,0838,12004,029.5,045.5,0.253,759.3,01.16,0.508
2016-03-20 03:46:00,2020E-3,5C000400,-0724,0838,11989,029.5,045.5,0.253,759.4,01.16,0.508
2016-03-20 03:47:00,2005E-3,5C000400,-0724,0839,12026,029.5,045.5,0.253,759.4,01.16,0.508
2016-03-20 03:48:00,1987E-3,5C000400,-0724,0838,12141,029.5,045.5,0.253,759.3,01.16,0.508
2016-03-20 03:49:00,1861E-3,5C000400,-0724,0837,11992,029.5,045.5,0.253,759.3,01.16,0.508
2016-03-20 03:50:00,2074E-3,5C000400,-0724,0838,12052,029.5,045.5,0.252,759.2,01.16,0.508
2016-03-20 03:51:00,2053E-3,5C000400,-0724,0838,12171,029.5,045.5,0.252,759.3,01.16,0.508
2016-03-20 03:52:00,2059E-3,5C000400,-0724,0839,12219,029.5,045.5,0.252,759.3,01.16,0.508
2016-03-20 03:53:00,1871E-3,5C000400,-0724,0838,11987,029.5,045.5,0.252,759.3,01.16,0.508
2016-03-20 03:54:00,2021E-3,5C000400,-0724,0838,12134,029.5,045.5,0.252,759.3,01.16,0.508
2016-03-20 03:55:00,1924E-3,5C000400,-0724,0838,12079,029.5,045.5,0.252,759.3,01.16,0.508
2016-03-20 03:56:00,1976E-3,5C000400,-0724,0839,12102,029.5,045.5,0.252,759.3,01.16,0.508
2016-03-20 03:57:00,1954E-3,5C000400,-0724,0839,12221,029.5,045.5,0.252,759.3,01.16,0.508
2016-03-20 03:58:00,1932E-3,5C000400,-0724,0838,12066,029.5,045.5,0.252,759.3,01.16,0.508
2016-03-20 03:59:00,1842E-3,5C000400,-0724,0838,12107,029.5,045.5,0.252,759.3,01.16,0.508
2016-03-20 04:00:00,1954E-3,5C000400,-0724,0839,12053,029.6,045.5,0.252,759.3,01.16,0.508
2016-03-20 04:01:00,2094E-3,5C000400,-0724,0838,12138,029.5,045.5,0.252,759.3,01.16,0.508
2016-03-20 04:02:00,1922E-3,5C000400,-0724,0839,12104,029.6,045.5,0.252,759.3,01.16,0.508
2016-03-20 04:03:00,1932E-3,5C000400,-0724,0839,12138,029.5,045.5,0.252,759.3,01.16,0.508
2016-03-20 04:04:00,1820E-3,5C000400,-0724,0839,12116,029.6,045.5,0.252,759.3,01.16,0.508
2016-03-20 04:05:00,1991E-3,5C000400,-0724,0838,12079,029.6,045.5,0.252,759.3,01.16,0.508
2016-03-20 04:06:00,1951E-3,5C000400,-0724,0838,12091,029.6,045.5,0.252,759.3,01.16,0.508
2016-03-20 04:07:00,2025E-3,5C000400,-0724,0838,12168,029.6,045.5,0.252,759.3,01.16,0.508
2016-03-20 04:08:00,1978E-3,5C000400,-0724,0839,12159,029.6,045.5,0.252,759.3,01.16,0.508
2016-03-20 04:09:00,1888E-3,5C000400,-0724,0838,12232,029.6,045.5,0.252,759.3,01.16,0.508
2016-03-20 04:10:00,1904E-3,5C000400,-0724,0838,12052,029.6,045.5,0.252,759.3,01.16,0.508
2016-03-20 04:11:00,1895E-3,5C000400,-0724,0839,12243,029.6,045.5,0.252,759.3,01.16,0.508
2016-03-20 04:12:00,2065E-3,5C000400,-0724,0838,12110,029.6,045.5,0.252,759.3,01.16,0.508
2016-03-20 04:13:00,1909E-3,5C000400,-0724,0838,12103,029.6,045.5,0.252,759.3,01.16,0.508
2016-03-20 04:14:00,1823E-3,5C000400,-0724,0839,12055,029.6,045.5,0.252,759.2,01.16,0.508
2016-03-20 04:15:00,1912E-3,5C000400,-0724,0838,12133,029.6,045.5,0.252,759.2,01.16,0.508
2016-03-20 04:16:00,1986E-3,5C000400,-0724,0838,12191,029.6,045.5,0.252,759.2,01.16,0.508
2016-03-20 04:17:00,2041E-3,5C000400,-0724,0838,12119,029.6,045.5,0.252,759.3,01.16,0.508
2016-03-20 04:18:00,2007E-3,5C000400,-0724,0838,12091,029.6,045.5,0.252,759.3,01.16,0.508
2016-03-20 04:19:00,1977E-3,5C000400,-0724,0838,12099,029.6,045.5,0.252,759.3,01.16,0.508
2016-03-20 04:20:00,1948E-3,5C000400,-0724,0838,12072,029.6,045.5,0.252,759.3,01.16,0.508